#timestamp,LO_Frequency,Hit 
1500847215.8,286046251.6,N
1500847235.7,286046251.6,N
1500847255.5,286046253.6,N
1500847275.3,286046251.2,N
1500847295.2,286046251.5,N
1500847315.0,286046251.6,N
1500847315.9,286046251.6,N
1500847335.8,286046250.9,N
1500847355.6,286046251.7,N
1500847375.4,286046251.1,N
1500847395.3,286046251.8,N
1500847415.1,286046251.1,N
1500847435.8,286046251.7,N
1500847455.7,286046251.5,N
1500847475.5,286046253.6,N
1500847495.4,286046251.6,N
1500847515.2,286046253.9,N
1500847535.0,286046252.8,N
1500847535.9,286046252.8,N
1500847555.8,286046250.9,N
1500847575.6,286046253.8,N
1500847595.5,286046252.7,N
1500847615.3,286046253.7,N
1500847635.1,286046253.1,N
1500847655.9,286046255.6,N
1500847675.7,286046255.5,N
1500847695.5,286046256.8,N
1500847715.4,286046254.3,N
1500847735.2,286046257.2,N
1500847755.1,286046255.0,N
1500847756.0,286046255.0,N
1500847775.8,286046257.2,N
1500847795.6,286046254.5,N
1500847815.5,286046254.1,N
1500847835.3,286046254.4,N
1500847855.2,286046254.2,N
1500847875.9,286046254.6,N
1500847895.7,286046254.7,N
1500847915.6,286046254.6,N
1500847935.4,286046254.4,N
1500847955.2,286046256.9,N
1500847975.1,286046254.6,N
1500847976.0,286046254.6,N
1500847995.8,286046254.6,N
1500848015.7,286046254.3,N
1500848035.5,286046254.2,N
1500848055.3,286046256.9,N
1500848075.2,286046256.6,N
1500848095.0,286046254.2,N
1500848095.9,286046254.2,N
1500848115.8,286046257.1,N
1500848135.6,286046254.1,N
1500848155.4,286046256.8,N
1500848175.3,286046256.9,N
1500848195.1,286046256.8,N
1500848215.9,286046256.6,N
1500848235.7,286046254.2,N
1500848255.5,286046255.9,N
1500848275.4,286046254.5,N
1500848295.2,286046257.1,N
1500848315.0,286046257.0,N
1500848315.9,286046257.0,N
1500848335.8,286046256.6,N
1500848355.6,286046254.5,N
1500848375.5,286046256.8,N
1500848395.3,286046256.9,N
1500848415.1,286046254.1,N
1500848435.9,286046254.1,N
1500848455.7,286046256.9,N
1500848475.6,286046256.2,N
1500848495.4,286046256.6,N
1500848515.2,286046255.7,N
1500848535.1,286046258.1,N
1500848536.0,286046258.1,N
1500848555.8,286046258.5,N
1500848575.7,286046257.4,N
1500848595.5,286046257.5,N
1500848615.3,286046257.5,N
1500848635.2,286046257.4,N
1500848655.0,286046257.3,N
1500848655.9,286046257.3,N
1500848675.8,286046255.7,N
1500848695.6,286046255.7,N
1500848715.4,286046258.6,N
1500848735.3,286046257.8,N
1500848755.1,286046261.6,N
1500848775.8,286046259.2,N
1500848795.7,286046257.4,N
1500848815.5,286046257.7,N
1500848835.4,286046258.1,N
1500848855.2,286046258.1,N
1500848875.0,286046260.3,N
1500848875.9,286046260.3,N
1500848895.8,286046258.3,N
1500848915.6,286046258.3,N
1500848935.5,286046260.1,N
1500848955.3,286046259.3,N
1500848975.1,286046259.5,N
1500848995.9,286046260.2,N
1500849015.7,286046259.7,N
1500849035.5,286046257.5,N
1500849055.4,286046257.3,N
1500849075.2,286046260.4,N
1500849095.1,286046260.0,N
1500849096.0,286046260.0,N
1500849115.8,286046259.8,N
1500849135.6,286046259.4,N
1500849155.5,286046257.7,N
1500849175.3,286046258.2,N
1500849195.1,286046269.5,N
1500849215.9,286046257.3,N
1500849235.7,286046258.6,N
1500849255.6,286046257.5,N
1500849275.4,286046258.0,N
1500849295.2,286046257.9,N
1500849315.1,286046258.1,N
1500849316.0,286046258.1,N
1500849335.8,286046257.6,N
1500849355.7,286046260.4,N
1500849375.5,286046260.3,N
1500849395.3,286046260.2,N
1500849415.2,286046257.6,N
1500849435.0,286046260.4,N
1500849435.9,286046260.4,N
1500849455.8,286046259.9,N
1500849475.6,286046259.9,N
1500849495.4,286046257.8,N
1500849515.3,286046260.3,N
1500849535.1,286046260.3,N
1500849555.8,286046259.8,N
1500849575.7,286046260.1,N
1500849595.5,286046260.4,N
1500849615.4,286046260.2,N
1500849635.2,286046260.0,N
1500849655.0,286046259.1,N
1500849655.9,286046259.1,N
1500849675.8,286046261.6,N
1500849695.6,286046259.7,N
1500849715.4,286046259.2,N
1500849735.3,286046260.4,N
1500849755.1,286046260.4,N
1500849775.9,286046259.8,N
1500849795.7,286046260.4,N
1500849815.5,286046260.1,N
1500849835.4,286046260.1,N
1500849855.2,286046257.3,N
1500849875.0,286046257.4,N
1500849876.0,286046257.4,N
1500849895.8,286046260.1,N
1500849915.6,286046259.8,N
1500849935.5,286046260.2,N
1500849955.3,286046260.4,N
1500849975.1,286046259.5,N
1500849995.9,286046260.7,N
1500850015.7,286046259.3,N
1500850035.6,286046259.0,N
1500850055.4,286046259.9,N
1500850075.2,286046260.1,N
1500850095.1,286046258.7,N
1500850096.0,286046258.7,N
1500850115.8,286046259.7,N
1500850135.7,286046258.9,N
1500850155.5,286046259.9,N
1500850175.3,286046259.4,N
1500850195.2,286046259.0,N
1500850215.0,286046260.2,N
1500850215.9,286046260.2,N
1500850235.8,286046259.8,N
1500850255.6,286046257.3,N
1500850275.4,286046260.2,N
1500850295.3,286046259.5,N
1500850315.1,286046259.7,N
1500850335.9,286046259.5,N
1500850355.7,286046257.3,N
1500850375.5,286046260.0,N
1500850395.4,286046260.3,N
1500850415.2,286046260.2,N
1500850435.0,286046259.5,N
1500850436.0,286046259.5,N
1500850455.8,286046261.7,N
1500850475.6,286046258.9,N
1500850495.5,286046262.0,N
1500850515.3,286046261.1,N
1500850535.1,286046263.1,N
1500850555.9,286046262.9,N
1500850575.7,286046263.3,N
1500850595.6,286046265.2,N
1500850615.4,286046262.6,N
1500850635.2,286046263.1,N
1500850655.1,286046262.7,N
1500850656.0,286046262.7,N
1500850675.8,286046263.0,N
1500850695.7,286046262.6,N
1500850715.5,286046263.3,N
1500850735.3,286046263.3,N
1500850755.2,286046261.2,N
1500850775.0,286046261.7,N
1500850775.9,286046261.7,N
1500850795.7,286046258.9,N
